アトラス彗星

C/2024 G6 ( ATLAS )

English version
Home page
Updated on August 30, 2025

---------------------------------------------------------------------

・ プロフィール

発見日 2024年4月10日
発見光度 19.1等
発見者 Asteroid Terrestrial-Impact Last Alert System (ATLAS) search program

・ 写真集

・ 軌道要素

Epoch 2025 May 5.0 TT = JDT 2460800.5
T 2026 Feb. 20.77331 TT                                 Pike
q   6.4297508            (2000.0)            P               Q
z  -0.0003461      Peri.   23.44207     -0.49003055     -0.30974373
 +/-0.0000029      Node   250.95188     -0.87169536     +0.16966680
e   1.0022255      Incl.  120.45605     -0.00415380     +0.93555972
From 472 observations 2024 Apr. 10-2025 Aug. 1, mean residual 0".5.

・ 光度変化

        m1 = -3.5 + 5 logΔ + 20.0 log r

---------------------------------------------------------------------

軌道要素はM.P.E.C. 2025-P113に掲載されたものです。
光度グラフはComet for Windowsで作成したものです。

---------------------------------------------------------------------

Copyright(C) Seiichi Yoshida (comet@aerith.net). All rights reserved.